medicion_dia_semana;medicion_fecha;medicion_hora;temperatura_grados_centigrados_momento_medicion;consumo_ mega_wat
lunes;01/01/2018;23:30;31,9;760
martes;02/01/2018;21:45;33,2;874
miercoles;03/01/2018;22:00;35,1;945
jueves;04/01/2018;14:00;38,4;1010
viernes;05/01/2018;13:00;30,4;882
s�bado;06/01/2018;21:45;31,4;840
domingo;07/01/2018;23:30;35,4;868
lunes;08/01/2018;13:00;35,7;1021
martes;09/01/2018;22:00;34,2;953
mi�rcoles;10/01/2018;14:00;36,8;1035
jueves;11/01/2018;14:00;37,6;1064
viernes;12/01/2018;15:00;36,4;1037
s�bado;13/01/2018;1:00;24,3;832
domingo;14/01/2018;23:00;29;793
lunes;15/01/2018;21:30;32,6;854
martes;16/01/2018;12:00;26,5;849
mi�rcoles;17/01/2018;21:15;32;936
jueves;18/01/2018;22:30;32,9;934
viernes;19/01/2018;13:00;35,5;902
s�bado;20/01/2018;21:00;34,2;918
domingo;21/01/2018;22:15;34,3;769
lunes;22/01/2018;21:45;34;965
martes;23/01/2018;21:45;35,8;921
mi�rcoles;24/01/2018;22:00;29,3;963
jueves;25/01/2018;22:15;31,8;886
viernes;26/01/2018;21:15;33,1;991
s�bado;27/01/2018;4:00;30,4;841
domingo;28/01/2018;22:00;33,7;818
lunes;29/01/2018;13:00;34,8;956
martes;30/01/2018;13:00;34,7;952
mi�rcoles;31/01/2018;21:30;30,5;893
jueves;01/02/2018;13:00;34,2;975
viernes;02/02/2018;14:00;36,2;1003
s�bado;03/02/2018;21:15;38,2;973
domingo;04/02/2018;22:00;38,3;933
lunes;05/02/2018;22:15;38,4;1111
martes;06/02/2018;13:00;38,6;1142
mi�rcoles;07/02/2018;18:00;33,1;1054
jueves;08/02/2018;16:00;36,7;1030
viernes;09/02/2018;1:00;29,2;917
s�bado;10/02/2018;21:15;28;800
domingo;11/02/2018;1:00;21,6;708
lunes;12/02/2018;21:30;29,1;757
martes;13/02/2018;21:30;32,1;911
mi�rcoles;14/02/2018;21:45;34,4;925
jueves;15/02/2018;21:30;35,3;974
viernes;16/02/2018;14:00;36,9;1021
s�bado;17/02/2018;21:15;34,8;935
domingo;18/02/2018;22:30;34,9;833
lunes;19/02/2018;21:30;32,1;931
martes;20/02/2018;21:15;27,2;842
mi�rcoles;21/02/2018;21:15;31,5;887
jueves;22/02/2018;21:15;34,7;926
viernes;23/02/2018;13:00;27,9;854
s�bado;24/02/2018;21:30;23,7;745
domingo;25/02/2018;22:00;28,4;720
lunes;26/02/2018;21:00;32,3;871
martes;27/02/2018;13:00;29,9;767
mi�rcoles;28/02/2018;21:15;28;810
jueves;01/03/2018;20:45;32,7;849
viernes;02/03/2018;21:00;34,5;898
s�bado;03/03/2018;21:00;35,8;843
domingo;04/03/2018;21:15;33,4;823
lunes;05/03/2018;20:45;27,4;839
martes;06/03/2018;21:00;29,9;850
mi�rcoles;07/03/2018;20:45;32,3;897
jueves;08/03/2018;20:45;33,8;878
viernes;09/03/2018;20:45;35,1;928
s�bado;10/03/2018;1:00;26,6;785
domingo;11/03/2018;21:15;26,5;721
lunes;12/03/2018;20:45;31,5;840
martes;13/03/2018;20:45;26;813
mi�rcoles;14/03/2018;21:00;31,5;843
jueves;15/03/2018;20:30;25,3;808
viernes;16/03/2018;20:30;31,8;852
s�bado;17/03/2018;20:30;33;799
domingo;18/03/2018;21:15;23;724
lunes;19/03/2018;21:15;28,4;808
martes;20/03/2018;20:45;23,3;817
mi�rcoles;21/03/2018;21:00;25,3;812
jueves;22/03/2018;20:15;30,7;832
viernes;23/03/2018;20:15;32,7;849
s�bado;24/03/2018;20:45;23,9;735
domingo;25/03/2018;21:15;23,2;700
lunes;26/03/2018;21:15;24,7;791
martes;27/03/2018;21:00;28,1;803
mi�rcoles;28/03/2018;20:15;32,2;811
jueves;29/03/2018;20:15;31,9;802
viernes;30/03/2018;21:15;32,2;721
s�bado;31/03/2018;20:15;31,8;780
domingo;01/04/2018;21:30;26,9;676
lunes;02/04/2018;20:30;26,9;737
martes;03/04/2018;20:15;30,4;813
mi�rcoles;04/04/2018;20:15;32,5;831
jueves;05/04/2018;20:15;25,1;792
viernes;06/04/2018;20:45;20,9;778
s�bado;07/04/2018;20:15;22,8;741
domingo;08/04/2018;21:00;26,3;719
lunes;09/04/2018;20:45;29,7;813
martes;10/04/2018;20:00;29,5;830
mi�rcoles;11/04/2018;20:00;33,1;834
jueves;12/04/2018;21:00;18,8;794
viernes;13/04/2018;20:30;22,8;780
s�bado;14/04/2018;21:00;24,1;741
domingo;15/04/2018;21:00;26,2;709
lunes;16/04/2018;20:15;26,7;798
martes;17/04/2018;21:00;21,7;798
mi�rcoles;18/04/2018;20:30;25,4;806
jueves;19/04/2018;20:30;29,8;806
viernes;20/04/2018;12:00;30,2;822
s�bado;21/04/2018;20:00;32;775
domingo;22/04/2018;21:30;29,1;718
lunes;23/04/2018;19:45;23,9;787
martes;24/04/2018;20:15;20,7;786
mi�rcoles;25/04/2018;20:30;24,9;791
jueves;26/04/2018;19:45;28,7;804
viernes;27/04/2018;19:45;19,8;782
s�bado;28/04/2018;20:15;21,2;733
domingo;29/04/2018;21:15;23,1;696
lunes;30/04/2018;21:00;20,2;740
martes;01/05/2018;0:00;19,7;745
mi�rcoles;02/05/2018;12:00;23;775
jueves;03/05/2018;21:00;23,5;766
viernes;04/05/2018;21:00;17,7;771
s�bado;05/05/2018;20:45;18,6;737
domingo;06/05/2018;21:30;19,3;703
lunes;07/05/2018;21:00;17,8;763
martes;08/05/2018;20:45;19;758
mi�rcoles;09/05/2018;20:00;20,9;757
jueves;10/05/2018;20:30;21,7;758
viernes;11/05/2018;20:00;23;741
s�bado;12/05/2018;20:30;23,4;712
domingo;13/05/2018;21:30;23,7;692
lunes;14/05/2018;20:30;22,2;754
martes;15/05/2018;20:00;17,2;782
mi�rcoles;16/05/2018;20:00;17,3;796
jueves;17/05/2018;20:30;20,4;793
viernes;18/05/2018;20:00;20,3;768
s�bado;19/05/2018;21:00;19,5;752
domingo;20/05/2018;21:30;21,3;735
lunes;21/05/2018;21:30;18,6;781
martes;22/05/2018;21:15;20,2;805
mi�rcoles;23/05/2018;20:45;21,2;809
jueves;24/05/2018;20:45;21,6;789
viernes;25/05/2018;21:00;21,5;727
s�bado;26/05/2018;20:45;20,9;741
domingo;27/05/2018;21:45;19,3;743
lunes;28/05/2018;20:45;22,6;794
martes;29/05/2018;21:30;19,1;794
mi�rcoles;30/05/2018;21:00;14,7;821
jueves;31/05/2018;20:45;9,4;865
viernes;01/06/2018;19:45;9,2;854
s�bado;02/06/2018;20:45;9,5;821
domingo;03/06/2018;21:00;8,4;786
lunes;04/06/2018;20:45;11,4;876
martes;05/06/2018;20:15;16,1;883
mi�rcoles;06/06/2018;21:00;18,5;862
jueves;07/06/2018;21:30;15,5;862
viernes;08/06/2018;20:30;17,3;848
s�bado;09/06/2018;20:30;15,4;811
domingo;10/06/2018;21:45;17,6;774
lunes;11/06/2018;20:15;10,9;888
martes;12/06/2018;20:30;11;917
mi�rcoles;13/06/2018;20:15;10,2;914
jueves;14/06/2018;21:15;11,6;924
viernes;15/06/2018;19:45;12,3;897
s�bado;16/06/2018;21:15;14,5;834
domingo;17/06/2018;22:00;17,8;805
lunes;18/06/2018;21:15;17,9;882
martes;19/06/2018;20:45;20,3;846
mi�rcoles;20/06/2018;21:30;20,6;808
jueves;21/06/2018;21:15;18,9;839
viernes;22/06/2018;20:30;19,4;821
s�bado;23/06/2018;19:30;16,5;810
domingo;24/06/2018;21:30;14,1;796
lunes;25/06/2018;21:15;16,4;869
martes;26/06/2018;21:00;18;864
mi�rcoles;27/06/2018;21:15;21,8;849
jueves;28/06/2018;21:00;20,2;824
viernes;29/06/2018;20:15;19,1;813
s�bado;30/06/2018;20:45;20,2;780
domingo;01/07/2018;22:00;19,4;762
lunes;02/07/2018;20:15;10,2;869
martes;03/07/2018;20:00;5,6;903
mi�rcoles;04/07/2018;20:30;4;927
jueves;05/07/2018;20:15;6,3;929
viernes;06/07/2018;19:45;9,1;889
s�bado;07/07/2018;21:00;13,6;834
domingo;08/07/2018;21:45;7,1;803
lunes;09/07/2018;21:45;10,9;836
martes;10/07/2018;20:30;12,6;889
mi�rcoles;11/07/2018;20:45;15;866
jueves;12/07/2018;20:45;17,2;841
viernes;13/07/2018;20:45;20,3;818
s�bado;14/07/2018;21:00;22,9;766
domingo;15/07/2018;21:45;16,1;752
lunes;16/07/2018;20:30;16,3;836
martes;17/07/2018;20:45;16,5;849
mi�rcoles;18/07/2018;21:00;8,4;873
jueves;19/07/2018;20:30;13;870
viernes;20/07/2018;20:45;11,1;871
s�bado;21/07/2018;20:30;14,1;827
domingo;22/07/2018;21:30;13,5;806
lunes;23/07/2018;20:45;11,3;876
martes;24/07/2018;20:15;13,9;875
mi�rcoles;25/07/2018;21:30;15,4;848
jueves;26/07/2018;21:45;17,4;867
viernes;27/07/2018;20:15;12,6;888
s�bado;28/07/2018;21:15;16,3;809
domingo;29/07/2018;21:15;17,5;793
lunes;30/07/2018;20:30;18,1;841
martes;31/07/2018;21:30;16,4;855
mi�rcoles;01/08/2018;21:15;17,7;851
jueves;02/08/2018;21:00;17,3;845
viernes;03/08/2018;20:15;20,6;820
s�bado;04/08/2018;20:45;19,1;782
domingo;05/08/2018;21:30;21,1;745
lunes;06/08/2018;21:15;21,2;802
martes;07/08/2018;20:15;17,9;823
mi�rcoles;08/08/2018;21:00;15;856
jueves;09/08/2018;20:30;16,1;863
viernes;10/08/2018;19:45;19,2;825
s�bado;11/08/2018;21:15;20,9;778
domingo;12/08/2018;21:30;22;743
lunes;13/08/2018;21:30;21;788
martes;14/08/2018;21:15;16;812
mi�rcoles;15/08/2018;20:45;20;825
jueves;16/08/2018;21:45;23,3;806
viernes;17/08/2018;20:30;25,1;778
s�bado;18/08/2018;20:45;14,5;791
domingo;19/08/2018;21:45;13,4;750
lunes;20/08/2018;21:30;15,1;807
martes;21/08/2018;20:30;18,4;831
mi�rcoles;22/08/2018;21:30;19,3;843
jueves;23/08/2018;20:15;19,1;832
viernes;24/08/2018;20:45;14,8;838
s�bado;25/08/2018;21:00;19,8;784
domingo;26/08/2018;22:15;27,3;711
lunes;27/08/2018;21:15;27,2;762
martes;28/08/2018;21:45;26,8;759
mi�rcoles;29/08/2018;21:00;24;770
jueves;30/08/2018;20:30;15,8;812
viernes;31/08/2018;20:15;9,3;848
s�bado;01/09/2018;21:00;14,9;780
domingo;02/09/2018;21:30;21,6;741
lunes;03/09/2018;21:15;24,1;773
martes;04/09/2018;21:30;27,1;767
mi�rcoles;05/09/2018;20:45;28,9;751
jueves;06/09/2018;21:00;23,4;758
viernes;07/09/2018;20:30;22,3;756
s�bado;08/09/2018;21:30;24,1;714
domingo;09/09/2018;22:00;23,5;697
lunes;10/09/2018;21:30;21,3;749
martes;11/09/2018;20:30;26,1;760
mi�rcoles;12/09/2018;21:15;17,9;775
jueves;13/09/2018;20:30;22,9;763
viernes;14/09/2018;20:30;25,7;751
s�bado;15/09/2018;20:45;24,4;708
domingo;16/09/2018;21:15;26,7;689
lunes;17/09/2018;20:45;27,8;765
martes;18/09/2018;20:45;28;749
mi�rcoles;19/09/2018;21:00;22,9;762
jueves;20/09/2018;20:15;28,5;766
viernes;21/09/2018;20:15;31,2;770
s�bado;22/09/2018;20:45;36,3;714
domingo;23/09/2018;21:15;26,8;674
lunes;24/09/2018;21:15;23,6;747
martes;25/09/2018;21:15;27,6;764
mi�rcoles;26/09/2018;21:15;19,6;787
jueves;27/09/2018;20:45;20,1;783
viernes;28/09/2018;12:00;25,5;777
s�bado;29/09/2018;20:45;25,1;733
